Weather History for Teterboro, NJ

Change the Weather History Date:

Saturday, March 23, 2013

  Actual Average Record
Temperature  
Mean Temperature 40 °F -  
Max Temperature 46 °F 50 °F 75 °F (2012)
Min Temperature 33 °F 33 °F 19 °F (2004)
Degree Days  
Heating Degree Days 26    
Moisture  
Dew Point 20 °F    
Average Humidity 47    
Maximum Humidity 59    
Minimum Humidity 38    
Precipitation  
Precipitation 0.00 in - - ()
Sea Level Pressure  
Sea Level Pressure 29.87 in    
Wind  
Wind Speed 12 mph (WNW)    
Max Wind Speed 20 mph    
Max Gust Speed 31 mph    
Visibility 10 miles    
Events      
Averages and records for this station are not official NWS values.
T = Trace of Precipitation, MM = Missing Value Source: NWS Daily Summary

Daily Weather History Graph

Daily Weather History Graph

Search for Another Location

Airport:

Trip Planner

Search our weather history database for the weather conditions in past years. The results will help you decide how hot, cold, wet, or windy it might be!

Date:

Astronomy

Mar. 23, 2013 Rise Set
Actual Time 6:54 AM EDT 7:11 PM EDT
Civil Twilight 6:26 AM EDT 7:39 PM EDT
Nautical Twilight 5:54 AM EDT 8:11 PM EDT
Astronomical Twilight 5:21 AM EDT 8:44 PM EDT
Moon 3:34 PM EDT (3/23) 4:30 AM EDT (3/23)
Length of Visible Light 13h 12m
Length of Day
12h 17m
Waxing Gibbous, 85% of the Moon is Illuminated
Mar 23
Waxing Gibbous
Mar 27
Full
Apr 3
Last Quarter
Apr 10
New
Apr 18
First Quarter

Hourly Weather History & Observations

Time (EDT) Temp. Windchill Dew Point Humidity Pressure Visibility Wind Dir Wind Speed Gust Speed Precip Events Conditions
12:51 AM 36.0 °F 29.6 °F 23.0 °F 59% 29.88 in 10.0 mi West 8.1 mph - N/A   Overcast
1:51 AM 35.6 °F 27.1 °F 19.4 °F 52% 29.88 in 10.0 mi NW 12.7 mph - N/A   Mostly Cloudy
2:51 AM 36.0 °F 29.0 °F 19.0 °F 50% 29.88 in 10.0 mi WNW 9.2 mph 18.4 mph N/A   Mostly Cloudy
3:51 AM 35.1 °F 27.9 °F 18.0 °F 50% 29.85 in 10.0 mi West 9.2 mph - N/A   Clear
4:51 AM 34.0 °F 27.2 °F 18.0 °F 52% 29.86 in 10.0 mi WNW 8.1 mph - N/A   Clear
5:51 AM 33.1 °F 26.1 °F 18.0 °F 54% 29.87 in 10.0 mi West 8.1 mph - N/A   Clear
6:51 AM 33.1 °F 26.1 °F 19.0 °F 56% 29.88 in 10.0 mi West 8.1 mph - N/A   Clear
7:51 AM 35.1 °F 28.6 °F 19.9 °F 54% 29.89 in 10.0 mi WNW 8.1 mph - N/A   Partly Cloudy
8:51 AM 37.0 °F 29.3 °F 19.9 °F 50% 29.88 in 10.0 mi WNW 11.5 mph 23.0 mph N/A   Clear
9:51 AM 37.9 °F 30.5 °F 21.0 °F 51% 29.87 in 10.0 mi West 11.5 mph 27.6 mph N/A   Clear
10:51 AM 39.9 °F 30.8 °F 21.9 °F 49% 29.86 in 10.0 mi WNW 18.4 mph 27.6 mph N/A   Clear
11:51 AM 41.0 °F 31.9 °F 21.0 °F 45% 29.86 in 10.0 mi WNW 19.6 mph 31.1 mph N/A   Mostly Cloudy
12:51 PM 43.0 °F 34.8 °F 23.0 °F 45% 29.86 in 10.0 mi WNW 18.4 mph 25.3 mph N/A   Mostly Cloudy
1:51 PM 44.1 °F 36.5 °F 23.0 °F 43% 29.84 in 10.0 mi WNW 17.3 mph 27.6 mph N/A   Mostly Cloudy
2:51 PM 44.1 °F 35.9 °F 21.0 °F 40% 29.82 in 10.0 mi NW 19.6 mph 25.3 mph N/A   Overcast
3:51 PM 46.0 °F 39.3 °F 21.9 °F 39% 29.82 in 10.0 mi WNW 16.1 mph 28.8 mph N/A   Overcast
4:51 PM 44.1 °F 36.8 °F 21.0 °F 40% 29.83 in 10.0 mi WNW 16.1 mph 29.9 mph N/A   Partly Cloudy
5:51 PM 43.0 °F 35.4 °F 19.0 °F 38% 29.84 in 10.0 mi NNW 16.1 mph - N/A   Mostly Cloudy
6:51 PM 42.1 °F 33.3 °F 19.0 °F 40% 29.86 in 10.0 mi WNW 19.6 mph 25.3 mph N/A   Overcast
7:51 PM 39.9 °F 33.4 °F 18.0 °F 41% 29.88 in 10.0 mi NNW 10.4 mph 24.2 mph N/A   Clear
8:51 PM 39.0 °F 31.0 °F 18.0 °F 43% 29.91 in 10.0 mi NW 13.8 mph - N/A   Clear
9:51 PM 37.9 °F 31.5 °F 19.0 °F 47% 29.91 in 10.0 mi NNW 9.2 mph - N/A   Clear
10:51 PM 37.0 °F 28.9 °F 18.0 °F 46% 29.93 in 10.0 mi NW 12.7 mph - N/A   Scattered Clouds
11:51 PM 37.0 °F 29.3 °F 19.0 °F 48% 29.94 in 10.0 mi NNW 11.5 mph 21.9 mph N/A   Clear